SBPJSBGO

Guest
Details From SBPJ - Tocantins
To SBGO - Santo Genoveva
Flight Number -
Tags generated
Created
Modified
Stats Distance 409 nm / 757 km
Max Altitude 23,100 ft / 7,041 m
Waypoints 6
Social Downloads 1
Likes 0
Share VATSIM

Download

Looking for another format? Having issues loading an existing format? Contact us
Advertisement - Login to hide

Notes

Basic altitude profile: - Ascent Rate: 2500ft/min - Ascent Speed: 250kts - Cruise Altitude: 35000ft - Cruise Speed: 420kts - Descent Rate: 1500ft/min - Descent Speed: 250kts Options: - Use NATs: yes - Use PACOTS: yes - Use low airways: yes - Use high airways: yes

Route

SBPJ PMS G449 PORMI EDNAR SBGO

ID Type Via Altitude Latitude Longitude Leg Dist Tot Dist Heading (true) Name
O SBPJ APT - 0 ft / 0 m -10.29152˚ -48.35697˚ - 0 nm - Tocantins
PMS VOR - 0 ft / 0 m -10.28792˚ -48.35842˚ 0 nm 0 nm 338° / 338° PALMAS VOR-DME
LIBEC FIX G449 (AWY-LO) 21,600 ft / 6,584 m -11.29083˚ -48.29900˚ 60 nm 60 nm 177° / 177° -
PORMI FIX G449 (AWY-LO) 23,100 ft / 7,041 m -15.20533˚ -48.06100˚ 235 nm 296 nm 177° / 177° -
EDNAR FIX - 16,800 ft / 5,121 m -15.47683˚ -48.57850˚ 34 nm 330 nm 241° / 242° -
O SBGO APT - 0 ft / 0 m -16.63203˚ -49.22069˚ 78 nm 408 nm 208° / 208° Santo Genoveva

Altitude Profile

Advertisement - Login to hide

Weather


0- 5 10 15 20 25 30 35+ Temperature / ° C

Clouds and Precipitation
Forecast for 2018-05-27 18:00 UTC. Updated 4 hours ago

Ground ~20,000 ft ~40,000 ft Winds

SBPJ

Details ICAO SBPJ (PMW)
Name Tocantins
Region Brazil
Timezone America/Araguaina (UTC-3.0)
Stats Elevation 774 ft / 236 m (AMSL)
Location -10.291524° -48.356972°
Runways 1
Magnetic Variation 21.286° W

METAR

Not found

TAF

TAF SBPJ 271600Z 2718/2806 11005KT SCT040 TX33/2718Z TN23/2805Z BECMG 2720/2722 15005KT CAVOK RMK PDS

Decode

Departure Runways

ID Width Length Bearing (true) Bearing (mag) Surface Threshold Offset Overrun Length
14 148 ft / 45 m 8,194 ft / 2,497 m 124.06° 145.35° Asphalt 0 ft / 0 m 0 ft / 0 m
32 148 ft / 45 m 8,194 ft / 2,497 m 304.06° 325.35° Asphalt 0 ft / 0 m 0 ft / 0 m

SBGO

Details ICAO SBGO (GYN)
Name Santo Genoveva
Region Brazil
Timezone America/Sao_Paulo (UTC-3.0)
Stats Elevation 2,450 ft / 747 m (AMSL)
Location -16.632032° -49.220686°
Runways 1
Magnetic Variation 21.040° W

METAR

SBGO 272100Z 10008KT CAVOK 24/13 Q1020

Decode

TAF

TAF SBGO 271600Z 2718/2818 11006KT 9999 SCT040 TX28/2718Z TN15/2808Z BECMG 2722/2724 13005KT CAVOK BECMG 2816/2818 09010KT 9999 FEW040 RMK PDS

Decode

Destination Runways

ID Width Length Bearing (true) Bearing (mag) Surface Threshold Offset Overrun Length
14 148 ft / 45 m 8,208 ft / 2,502 m 120.42° 141.46° Asphalt 0 ft / 0 m 0 ft / 0 m
32 148 ft / 45 m 8,208 ft / 2,502 m 300.41° 321.45° Asphalt 980 ft / 299 m 0 ft / 0 m

Popular Alternatives